Mt Hood
Timberline Lodge
Latest observation 09/03 17:00 PDT
| Time (PDT) | Temp °F 5800' | RH % 5800' | Min mph 5920' | Spd mph 5920' | Gust mph 5920' | Dir ° 5920' | Pcp1 in 5800' | PcpSum in 5800' | 24Sno in 5800' | SnoHt in 5800' |
|---|---|---|---|---|---|---|---|---|---|---|
| 09/03 17:00 | 40 | 88 | 0 | 3 | 9 | 275 | 0.00 | 0.76 | 1.4 | 7.6 |
| 09/03 16:00 | 40 | 90 | 0 | 2 | 7 | 245 | 0.00 | 0.76 | 0.5 | 7.0 |
| 09/03 15:00 | 40 | 95 | 0 | 2 | 9 | 204 | 0.00 | 0.76 | 2.2 | 7.3 |
| 09/03 14:00 | 38 | 95 | 0 | 1 | 5 | 212 | 0.00 | 0.76 | 0.6 | 6.7 |
| 09/03 13:00 | 38 | 94 | 0 | 4 | 12 | 218 | 0.00 | 0.76 | 0.8 | 5.7 |
| 09/03 12:00 | 37 | 96 | 0 | 5 | 14 | 239 | 0.00 | 0.76 | 1.2 | 7.4 |
| 09/03 11:00 | 37 | 97 | 0 | 5 | 14 | 279 | 0.00 | 0.76 | 0.8 | 6.5 |
| 09/03 10:00 | 36 | 97 | 1 | 5 | 11 | 289 | 0.00 | 0.76 | 1.3 | 8.0 |
| 09/03 09:00 | 35 | 97 | 2 | 6 | 12 | 267 | 0.00 | 0.76 | 1.2 | 8.8 |
| 09/03 08:00 | 34 | 97 | 2 | 6 | 14 | 271 | 0.01 | 0.76 | 0.2 | 6.0 |
| 09/03 07:00 | 34 | 97 | 3 | 6 | 13 | 273 | 0.01 | 0.75 | 0.2 | 5.9 |
| 09/03 06:00 | 34 | 97 | 4 | 8 | 15 | 280 | 0.01 | 0.74 | 0.2 | 6.3 |
| 09/03 05:00 | 34 | 97 | 4 | 9 | 16 | 282 | 0.02 | 0.73 | 0.2 | 8.3 |
| 09/03 04:00 | 35 | 97 | 4 | 8 | 18 | 281 | 0.01 | 0.71 | 0.5 | 7.8 |
| 09/03 03:00 | 34 | 97 | 6 | 10 | 17 | 281 | 0.00 | 0.70 | 1.4 | 8.2 |
| 09/03 02:00 | 35 | 97 | 4 | 9 | 17 | 278 | 0.01 | 0.70 | 1.0 | 7.9 |
| 09/03 01:00 | 35 | 97 | 6 | 10 | 19 | 279 | 0.00 | 0.69 | 0.9 | 6.0 |
| 09/03 00:00 | 35 | 97 | 6 | 12 | 21 | 290 | 0.00 | 0.69 | 0.9 | 8.0 |
| 09/02 23:00 | 35 | 97 | 5 | 12 | 20 | 290 | 0.00 | 0.69 | 1.0 | 7.8 |
| 09/02 22:00 | 37 | 97 | 6 | 12 | 21 | 286 | 0.00 | 0.69 | 0.1 | 7.0 |
| 09/02 21:00 | 38 | 97 | 6 | 13 | 21 | 289 | 0.01 | 0.69 | 0.2 | 7.8 |
| 09/02 20:00 | 38 | 97 | 6 | 12 | 24 | 299 | 0.00 | 0.68 | 0.2 | 4.4 |
| 09/02 19:00 | 41 | 97 | 4 | 9 | 20 | 258 | 0.00 | 0.68 | 1.3 | 4.9 |
| 09/02 18:00 | 41 | 97 | 4 | 10 | 23 | 260 | 0.05 | 0.68 | 1.4 | 4.8 |
| 09/02 17:00 | 42 | 97 | 5 | 10 | 22 | 265 | 0.04 | 0.63 | 1.4 | 5.5 |
| 09/02 16:00 | 41 | 97 | 6 | 12 | 23 | 263 | 0.02 | 0.59 | 1.4 | 5.8 |
| 09/02 15:00 | 41 | 96 | 4 | 9 | 19 | 250 | 0.03 | 0.57 | 1.3 | 3.8 |
| 09/02 14:00 | 40 | 94 | 0 | 4 | 13 | 217 | 0.03 | 0.54 | 1.6 | 6.2 |
| 09/02 13:00 | 40 | 95 | 0 | 3 | 13 | 190 | 0.02 | 0.51 | 0.5 | 7.0 |
| 09/02 12:00 | 40 | 91 | 0 | 3 | 13 | 148 | 0.04 | 0.49 | 0.7 | 6.6 |
| 09/02 11:00 | 42 | 84 | 1 | 8 | 19 | 214 | 0.01 | 0.45 | 0.2 | 4.6 |
| 09/02 10:00 | 43 | 81 | 0 | 6 | 14 | 209 | 0.00 | 0.44 | 0.0 | 5.3 |
| 09/02 09:00 | 41 | 88 | 0 | 4 | 14 | 219 | 0.00 | 0.44 | 0.0 | 6.3 |
| 09/02 08:00 | 41 | 91 | 0 | 2 | 14 | 255 | 0.00 | 0.44 | 0.0 | 6.3 |
| 09/02 07:00 | 40 | 89 | 2 | 5 | 9 | 282 | 0.00 | 0.44 | 0.1 | 5.9 |
| 09/02 06:00 | 40 | 90 | 1 | 7 | 18 | 273 | 0.00 | 0.44 | 0.1 | 5.2 |
| 09/02 05:00 | 40 | 87 | 6 | 11 | 18 | 295 | 0.00 | 0.44 | 0.0 | 5.3 |
| 09/02 04:00 | 40 | 88 | 5 | 11 | 19 | 296 | 0.00 | 0.44 | 0.1 | 5.8 |
| 09/02 03:00 | 40 | 90 | 4 | 10 | 20 | 287 | 0.00 | 0.44 | 0.0 | 6.9 |
| 09/02 02:00 | 41 | 89 | 7 | 13 | 21 | 298 | 0.00 | 0.44 | 0.2 | 8.0 |
| 09/02 01:00 | 41 | 91 | 8 | 15 | 23 | 298 | 0.00 | 0.44 | 0.1 | 5.8 |
| 09/02 00:00 | 40 | 94 | 6 | 14 | 21 | 289 | 0.00 | 0.44 | 0.1 | 6.4 |
| 09/01 23:00 | 42 | 93 | 6 | 13 | 21 | 292 | 0.00 | 0.44 | 0.2 | 6.5 |
| 09/01 22:00 | 42 | 89 | 10 | 15 | 22 | 294 | 0.00 | 0.44 | 0.2 | 7.3 |
| 09/01 21:00 | 42 | 88 | 10 | 15 | 21 | 296 | 0.00 | 0.44 | 0.2 | 7.5 |
| 09/01 20:00 | 44 | 80 | 7 | 14 | 23 | 303 | 0.00 | 0.44 | 0.1 | 7.6 |
| 09/01 19:00 | 44 | 83 | 8 | 16 | 25 | 301 | 0.00 | 0.44 | 0.1 | 8.1 |
| 09/01 18:00 | 49 | 60 | 6 | 13 | 20 | 293 | 0.01 | 0.44 | 0.2 | 6.9 |
| 09/01 17:00 | 53 | 59 | 4 | 10 | 17 | 292 | 0.00 | 0.43 | 0.0 | 4.5 |
| 09/01 16:00 | 54 | 62 | 5 | 9 | 18 | 286 | 0.00 | 0.43 | 0.0 | 5.6 |
| 09/01 15:00 | 55 | 55 | 3 | 8 | 15 | 277 | 0.00 | 0.43 | 0.2 | 6.8 |
| 09/01 14:00 | 59 | 49 | 4 | 8 | 15 | 285 | 0.00 | 0.43 | 0.0 | 6.3 |
| 09/01 13:00 | 57 | 40 | 5 | 9 | 18 | 290 | 0.00 | 0.43 | 0.1 | 6.5 |
| 09/01 12:00 | 55 | 55 | 4 | 8 | 14 | 284 | 0.01 | 0.43 | 0.0 | 6.2 |
| 09/01 11:00 | 55 | 56 | 6 | 9 | 15 | 288 | 0.00 | 0.42 | 0.1 | 4.4 |
| 09/01 10:00 | 51 | 60 | 5 | 9 | 14 | 294 | 0.00 | 0.42 | 0.1 | 6.1 |
| 09/01 09:00 | 50 | 58 | 0 | 4 | 10 | 309 | 0.00 | 0.42 | -0.1 | 6.1 |
| 09/01 08:00 | 50 | 68 | 0 | 5 | 9 | 316 | 0.00 | 0.42 | 0.1 | 3.7 |
| 09/01 07:00 | 52 | 39 | 0 | 3 | 6 | 324 | 0.00 | 0.42 | 0.3 | 8.0 |
| 09/01 06:00 | 53 | 32 | 0 | 2 | 7 | 340 | 0.00 | 0.42 | 0.3 | 9.2 |
| 09/01 05:00 | 55 | 24 | 0 | 0 | 3 | 54 | 0.00 | 0.42 | 0.3 | 9.1 |
| 09/01 04:00 | 55 | 24 | 0 | 2 | 6 | 9 | 0.00 | 0.42 | 0.3 | 8.9 |
| 09/01 03:00 | 55 | 31 | 0 | 2 | 5 | 343 | 0.01 | 0.42 | 0.4 | 7.6 |
| 09/01 02:00 | 55 | 36 | 0 | 3 | 7 | 332 | 0.00 | 0.41 | 0.4 | 6.7 |
| 09/01 01:00 | 54 | 48 | 0 | 2 | 8 | 327 | 0.32 | 0.41 | 0.4 | 5.8 |
| 09/01 00:00 | 55 | 43 | 0 | 0 | 0 | 144 | 0.00 | 0.09 | 0.3 | 5.7 |
| 08/31 23:00 | 56 | 44 | 0 | 0 | 0 | 83 | 0.00 | 0.09 | 0.4 | 6.0 |
| 08/31 22:00 | 57 | 43 | 0 | 0 | 0 | 129 | 0.00 | 0.09 | 0.4 | 6.2 |
| 08/31 21:00 | 57 | 42 | 0 | 0 | 0 | 149 | 0.00 | 0.09 | 0.4 | 7.0 |
| 08/31 20:00 | 58 | 42 | 0 | 0 | 1 | 153 | 0.00 | 0.09 | 0.5 | 6.8 |
| 08/31 19:00 | 61 | 39 | 0 | 2 | 7 | 292 | 0.00 | 0.09 | 0.6 | 3.8 |
| 08/31 18:00 | 65 | 38 | 1 | 6 | 14 | 259 | 0.00 | 0.09 | 0.2 | 2.8 |
| 08/31 17:00 | 70 | 26 | 0 | 4 | 14 | 164 | 0.00 | 0.09 | 0.2 | 1.5 |
| 08/31 16:00 | 69 | 23 | 0 | 5 | 10 | 134 | 0.00 | 0.09 | -0.1 | 5.6 |
| 08/31 15:00 | 69 | 23 | 2 | 6 | 12 | 130 | 0.00 | 0.09 | 0.1 | 4.8 |
| 08/31 14:00 | 67 | 22 | 1 | 6 | 11 | 113 | 0.00 | 0.09 | 0.0 | 4.2 |
| 08/31 13:00 | 65 | 20 | 2 | 7 | 16 | 111 | 0.00 | 0.09 | 0.0 | 7.2 |
| 08/31 12:00 | 63 | 22 | 4 | 8 | 13 | 112 | 0.00 | 0.09 | 0.0 | 7.5 |
| 08/31 11:00 | 63 | 24 | 2 | 8 | 14 | 106 | 0.00 | 0.09 | 0.1 | 8.2 |
| 08/31 10:00 | 60 | 23 | 3 | 8 | 13 | 95 | 0.00 | 0.09 | 0.2 | 8.0 |
| 08/31 09:00 | 59 | 25 | 1 | 8 | 16 | 89 | 0.00 | 0.09 | 0.1 | 8.2 |
| 08/31 08:00 | 58 | 26 | 1 | 6 | 13 | 82 | 0.00 | 0.09 | 0.0 | 8.0 |
| 08/31 07:00 | 54 | 36 | 3 | 8 | 12 | 88 | 0.00 | 0.09 | 0.1 | 6.8 |
| 08/31 06:00 | 54 | 38 | 1 | 7 | 11 | 87 | 0.00 | 0.09 | 0.1 | 6.2 |
| 08/31 05:00 | 54 | 38 | 4 | 7 | 11 | 88 | 0.00 | 0.09 | 0.1 | 7.0 |
| 08/31 04:00 | 54 | 40 | 2 | 6 | 10 | 85 | 0.00 | 0.09 | 0.0 | 8.2 |
| 08/31 03:00 | 53 | 42 | 4 | 7 | 11 | 87 | 0.00 | 0.09 | 0.1 | 6.1 |
| 08/31 02:00 | 53 | 46 | 2 | 5 | 10 | 92 | 0.00 | 0.09 | 0.1 | 8.0 |
| 08/31 01:00 | 53 | 49 | 0 | 3 | 6 | 86 | 0.00 | 0.09 | 0.1 | 6.7 |
| 08/31 00:00 | 56 | 42 | 0 | 0 | 4 | 90 | 0.00 | 0.09 | 0.0 | 6.3 |
| 08/30 23:00 | 55 | 47 | 0 | 3 | 5 | 89 | 0.00 | 0.09 | 0.1 | 6.1 |
| 08/30 22:00 | 54 | 48 | 0 | 1 | 4 | 90 | 0.00 | 0.09 | 0.1 | 4.9 |
| 08/30 21:00 | 53 | 48 | 0 | 0 | 1 | 121 | 0.00 | 0.09 | 0.1 | 4.7 |
| 08/30 20:00 | 52 | 54 | 0 | 0 | 1 | 183 | 0.00 | 0.09 | 0.1 | 6.0 |
| 08/30 19:00 | 57 | 47 | 0 | 0 | 6 | 229 | 0.00 | 0.09 | 0.0 | 3.6 |
| 08/30 18:00 | 59 | 46 | 0 | 4 | 9 | 265 | 0.00 | 0.09 | 0.1 | 4.3 |
| 08/30 17:00 | 59 | 43 | 2 | 5 | 9 | 270 | 0.00 | 0.09 | -0.1 | 4.2 |
| 08/30 16:00 | 58 | 47 | 2 | 7 | 12 | 271 | 0.00 | 0.09 | 0.0 | 5.0 |
| 08/30 15:00 | 57 | 49 | 3 | 7 | 12 | 272 | 0.00 | 0.09 | 0.0 | 5.6 |
| 08/30 14:00 | 55 | 49 | 2 | 6 | 12 | 274 | 0.00 | 0.09 | 0.0 | 6.0 |
| 08/30 13:00 | 54 | 52 | 3 | 6 | 13 | 270 | 0.00 | 0.09 | 0.0 | 7.7 |
| 08/30 12:00 | 53 | 54 | 0 | 4 | 11 | 235 | 0.00 | 0.09 | 0.1 | 6.8 |
| 08/30 11:00 | 52 | 55 | 0 | 2 | 6 | 214 | 0.00 | 0.09 | 0.0 | 6.7 |
| 08/30 10:00 | 50 | 49 | 0 | 1 | 5 | 145 | 0.00 | 0.09 | 0.1 | 7.3 |
| 08/30 09:00 | 48 | 38 | 0 | 0 | 1 | 44 | 0.00 | 0.09 | 0.0 | 258.4 |
| 08/30 08:00 | 48 | 34 | 0 | 0 | 1 | 26 | 0.00 | 0.09 | -0.0 | 259.0 |
| 08/30 07:00 | 42 | 40 | 0 | 0 | 3 | 33 | 0.00 | 0.09 | 0.1 | -8.3 |
| 08/30 06:00 | 41 | 44 | 0 | 2 | 8 | 351 | 0.00 | 0.09 | 0.1 | -20.6 |
| 08/30 05:00 | 40 | 48 | 0 | 5 | 15 | 346 | 0.00 | 0.09 | 0.1 | -21.6 |
| 08/30 04:00 | 41 | 48 | 5 | 9 | 15 | 335 | 0.00 | 0.09 | 0.1 | 7.6 |
| 08/30 03:00 | 39 | 56 | 5 | 10 | 16 | 315 | 0.00 | 0.09 | 0.1 | -22.4 |
| 08/30 02:00 | 38 | 70 | 8 | 13 | 19 | 305 | 0.00 | 0.09 | 0.1 | -22.6 |
| 08/30 01:00 | 38 | 78 | 7 | 12 | 18 | 307 | 0.00 | 0.09 | 0.1 | -25.5 |
| 08/30 00:00 | 39 | 73 | 7 | 14 | 23 | 310 | 0.00 | 0.09 | 0.1 | -23.8 |
| 08/29 23:00 | 37 | 86 | 6 | 12 | 21 | 307 | 0.00 | 0.09 | 0.1 | 4.7 |
| 08/29 22:00 | 39 | 89 | 5 | 11 | 18 | 298 | 0.00 | 0.09 | 0.1 | 2.3 |
| 08/29 21:00 | 40 | 90 | 7 | 13 | 20 | 300 | 0.00 | 0.09 | 0.1 | 5.5 |
| 08/29 20:00 | 40 | 91 | 7 | 14 | 22 | 299 | 0.00 | 0.09 | 0.2 | -22.5 |
| 08/29 19:00 | 40 | 93 | 6 | 14 | 24 | 294 | 0.00 | 0.09 | 0.0 | 3.5 |
| 08/29 18:00 | 41 | 91 | 7 | 15 | 24 | 293 | 0.01 | 0.09 | 0.2 | -21.6 |
| 08/29 17:00 | 41 | 91 | 9 | 15 | 22 | 292 | 0.00 | 0.08 | 0.2 | 2.2 |
| 08/29 16:00 | 41 | 92 | 6 | 14 | 25 | 296 | 0.00 | 0.08 | 0.2 | -9.8 |
| 08/29 15:00 | 41 | 92 | 8 | 14 | 22 | 297 | 0.00 | 0.08 | 0.2 | 2.5 |
| 08/29 14:00 | 39 | 95 | 6 | 13 | 25 | 294 | 0.00 | 0.08 | 3.0 | -7.9 |
| 08/29 13:00 | 40 | 95 | 8 | 14 | 22 | 296 | 0.00 | 0.08 | 2.8 | 5.6 |
| 08/29 12:00 | 37 | 96 | 10 | 16 | 24 | 295 | 0.00 | 0.08 | 0.4 | 4.4 |
| 08/29 11:00 | 37 | 96 | 8 | 16 | 25 | 292 | 0.01 | 0.08 | 0.9 | 6.2 |
| 08/29 10:00 | 37 | 95 | 10 | 17 | 27 | 293 | 0.00 | 0.07 | 2.8 | 7.6 |
| 08/29 09:00 | 37 | 96 | 7 | 15 | 27 | 290 | 0.03 | 0.07 | 0.9 | 6.8 |
| 08/29 08:00 | 37 | 96 | 6 | 11 | 20 | 282 | 0.04 | 0.04 | 1.1 | 7.4 |
| 08/29 07:00 | 37 | 95 | 5 | 10 | 19 | 287 | 0.00 | 0.00 | 0.2 | 6.1 |
| 08/29 06:00 | 37 | 91 | 6 | 12 | 22 | 287 | 0.00 | 0.00 | 0.2 | 7.7 |
| 08/29 05:00 | 37 | 91 | 7 | 14 | 22 | 291 | 0.00 | 0.00 | 0.2 | 5.8 |
| 08/29 04:00 | 39 | 90 | 7 | 14 | 22 | 292 | 0.00 | 0.00 | 0.1 | 4.2 |
| 08/29 03:00 | 41 | 87 | 7 | 15 | 23 | 297 | 0.00 | 0.00 | 0.2 | 7.7 |
| 08/29 02:00 | 41 | 88 | 8 | 16 | 27 | 301 | 0.00 | 0.00 | 0.2 | 7.9 |
| 08/29 01:00 | 43 | 89 | 9 | 15 | 24 | 301 | 0.00 | 0.00 | 0.0 | 8.0 |
| 08/29 00:00 | 43 | 88 | 9 | 15 | 22 | 299 | 0.00 | 0.00 | 0.1 | 6.7 |
| 08/28 23:00 | 44 | 84 | 10 | 16 | 22 | 301 | 0.00 | 0.00 | 0.0 | 8.6 |
| 08/28 22:00 | 45 | 81 | 12 | 17 | 25 | 305 | 0.00 | 0.00 | 0.1 | 7.2 |
| 08/28 21:00 | 45 | 82 | 9 | 16 | 24 | 299 | 0.00 | 0.00 | 0.1 | -22.9 |
| 08/28 20:00 | 47 | 67 | 5 | 12 | 22 | 299 | 0.00 | 0.00 | 0.1 | 6.3 |
| 08/28 19:00 | 52 | 55 | 5 | 10 | 16 | 293 | 0.00 | 0.00 | 0.1 | 0.7 |
| 08/28 18:00 | 55 | 55 | 5 | 9 | 17 | 279 | 0.00 | 0.00 | 0.0 | 4.0 |
| 08/28 17:00 | 56 | 54 | 5 | 10 | 15 | 273 | 0.00 | 0.00 | 0.0 | 2.6 |
| 08/28 16:00 | 57 | 49 | 4 | 10 | 17 | 271 | 0.00 | 0.00 | 0.0 | 3.6 |
| 08/28 15:00 | 58 | 54 | 7 | 11 | 19 | 278 | 0.00 | 0.00 | 0.2 | 4.6 |
| 08/28 14:00 | 58 | 54 | 4 | 10 | 16 | 277 | 0.00 | 0.00 | 0.0 | 4.5 |
| 08/28 13:00 | 57 | 55 | 3 | 8 | 15 | 280 | 0.00 | 0.00 | 0.0 | 4.5 |
| 08/28 12:00 | 56 | 57 | 3 | 8 | 13 | 285 | 0.00 | 0.00 | 0.0 | 3.8 |
| 08/28 11:00 | 55 | 57 | 2 | 6 | 11 | 276 | 0.00 | 0.00 | 0.0 | 4.5 |
| 08/28 10:00 | 54 | 49 | 2 | 6 | 10 | 293 | 0.00 | 0.00 | 0.1 | 5.1 |
| 08/28 09:00 | 52 | 39 | 0 | 4 | 8 | 309 | 0.00 | 0.00 | 0.1 | -17.5 |
| 08/28 08:00 | 52 | 38 | 0 | 1 | 5 | 360 | 0.00 | 0.00 | 0.1 | 8.0 |
| 08/28 07:00 | 47 | 44 | 0 | 0 | 2 | 353 | 0.00 | 0.00 | 0.1 | 8.4 |
| 08/28 06:00 | 48 | 40 | 0 | 1 | 4 | 56 | 0.00 | 0.00 | 0.1 | -17.8 |
| 08/28 05:00 | 48 | 37 | 0 | 2 | 5 | 346 | 0.00 | 0.00 | 0.1 | -5.3 |
| 08/28 04:00 | 49 | 38 | 1 | 6 | 11 | 315 | 0.00 | 0.00 | 0.1 | 6.5 |
| 08/28 03:00 | 50 | 35 | 4 | 7 | 10 | 305 | 0.00 | 0.00 | 0.0 | 6.3 |
| 08/28 02:00 | 49 | 39 | 4 | 6 | 10 | 299 | 0.00 | 0.00 | 0.1 | -18.3 |
| 08/28 01:00 | 50 | 37 | 4 | 7 | 11 | 304 | 0.00 | 0.00 | 0.1 | 7.7 |
| 08/28 00:00 | 49 | 39 | 4 | 7 | 14 | 301 | 0.00 | 0.00 | 0.1 | -18.6 |
| 08/27 23:00 | 51 | 35 | 6 | 11 | 19 | 299 | 0.00 | 0.00 | 0.1 | 9.1 |
| 08/27 22:00 | 52 | 35 | 5 | 11 | 19 | 308 | 0.00 | 0.00 | 0.1 | 8.5 |
| 08/27 21:00 | 50 | 48 | 5 | 13 | 22 | 304 | 0.00 | 0.00 | 0.1 | -19.7 |
| 08/27 20:00 | 50 | 47 | 7 | 14 | 24 | 306 | 0.00 | 0.00 | 0.1 | 6.9 |
| 08/27 19:00 | 52 | 57 | 8 | 13 | 20 | 300 | 0.00 | 0.00 | 0.0 | 6.5 |
| 08/27 18:00 | 55 | 57 | 6 | 13 | 22 | 300 | 0.00 | 0.00 | 0.0 | 3.3 |

